CW1509 Weather Reports


Display with metric or nautical units.
time (UTC)temp
F
wind
direction
speed
MPH
gust
MPH
rain 1hr
in
rain 24hr
in
rain mn
in
humidity
%
barometer
mb
20260904075420 73 181 0.0 0.0 0.00 0.00 0.00 90 1013.8
20260904074921 73 181 0.0 0.0 0.00 0.00 0.00 90 1013.7
20260904074420 73 129 0.0 0.0 0.00 0.00 0.00 90 1013.7
20260904073921 73 94 0.0 0.0 0.00 0.00 0.00 90 1013.8
20260904073421 73 94 0.0 0.0 0.00 0.00 0.00 90 1014.0
20260904072921 73 94 0.0 0.0 0.00 0.00 0.00 90 1013.7
20260904072418 73 94 0.0 0.0 0.00 0.00 0.00 90 1013.8
20260904071937 73 94 0.0 0.0 0.00 0.00 0.00 90 1013.8
20260904071416 73 94 0.0 0.0 0.00 0.00 0.00 90 1013.9
20260904070916 73 94 0.0 0.0 0.00 0.00 0.00 90 1014.1
20260904070415 73 94 0.0 0.0 0.00 0.00 0.00 89 1014.1
20260904065914 73 94 0.0 0.0 0.00 0.00 0.00 89 1014.2
20260904065434 73 94 0.0 0.0 0.00 0.00 0.00 89 1014.3
20260904064911 73 94 0.0 0.0 0.00 0.00 0.00 89 1014.3
20260904064411 73 94 0.0 0.0 0.00 0.00 0.00 89 1014.5
20260904063912 73 94 0.0 0.0 0.00 0.00 0.00 89 1014.6
20260904063411 73 94 0.0 0.0 0.00 0.00 0.00 88 1014.6
20260904062911 73 94 0.0 0.0 0.00 0.00 0.00 88 1014.7
20260904062411 73 94 0.0 0.0 0.00 0.00 0.00 88 1014.9
20260904061911 73 94 0.0 0.0 0.00 0.00 0.00 88 1014.9
20260904061430 73 94 0.0 0.0 0.00 0.00 0.00 88 1014.9
20260904060931 74 94 0.0 0.0 0.00 0.00 0.00 88 1015.0
20260904060429 74 94 0.0 0.0 0.00 0.00 0.00 87 1015.0
20260904055947 74 94 0.0 0.0 0.00 0.00 0.00 87 1015.1
20260904055427 74 94 0.0 0.0 0.00 0.00 0.00 87 1015.1
20260904054927 74 94 0.0 0.0 0.00 0.00 0.00 87 1015.0
20260904054427 74 94 0.0 0.0 0.00 0.00 0.00 86 1015.0
20260904053946 74 94 0.0 0.0 0.00 0.00 0.00 86 1015.0
20260904053424 75 94 0.0 0.0 0.00 0.00 0.00 86 1014.9
20260904052945 75 94 0.0 0.0 0.00 0.00 0.00 85 1014.9
20260904052424 75 174 0.0 0.0 0.00 0.00 0.00 85 1014.7
20260904051924 75 174 0.0 0.0 0.00 0.00 0.00 85 1014.8
20260904051424 75 174 0.0 0.0 0.00 0.00 0.00 84 1014.7
20260904050946 75 174 0.0 0.0 0.00 0.00 0.00 84 1014.7
20260904050422 75 174 0.0 0.0 0.00 0.00 0.00 84 1014.7
20260904045922 75 174 0.0 0.0 0.00 0.00 0.00 83 1014.8
20260904045422 75 174 0.0 0.0 0.00 0.00 0.00 83 1014.8
20260904044921 76 174 0.0 0.0 0.00 0.00 0.00 83 1014.9
20260904044420 76 174 0.0 0.0 0.00 0.00 0.00 83 1014.9
20260904043921 76 174 0.0 0.0 0.00 0.00 0.00 83 1015.0
20260904043420 76 174 0.0 0.0 0.00 0.00 0.00 83 1014.9
20260904042919 76 174 0.0 0.0 0.00 0.00 0.00 83 1015.1
20260904042421 76 174 0.0 0.0 0.00 0.00 0.00 83 1015.1
20260904041936 76 174 0.0 0.0 0.00 0.00 0.00 82 1015.2
20260904041414 76 174 0.0 0.0 0.00 0.00 0.00 82 1015.2
20260904040913 77 174 0.0 0.0 0.00 0.00 0.00 82 1015.1
20260904040412 77 174 0.0 0.0 0.00 0.00 0.00 81 1015.2
20260904035952 77 173 0.0 0.0 0.00 0.00 0.00 81 1015.2
20260904035412 77 173 0.0 0.0 0.00 0.00 0.00 81 1015.2
20260904034912 77 173 0.0 0.0 0.00 0.00 0.00 80 1015.3
20260904034432 77 173 0.0 0.0 0.00 0.00 0.00 80 1015.3
20260904033931 77 173 0.0 0.0 0.00 0.00 0.00 80 1015.2
20260904033428 77 173 0.0 0.0 0.00 0.00 0.00 79 1015.1
20260904032948 78 173 0.0 0.0 0.00 0.00 0.00 79 1015.0
20260904032426 78 173 0.0 3.0 0.00 0.00 0.00 79 1015.0
20260904031926 78 175 0.0 4.0 0.00 0.00 0.00 79 1015.0
20260904031446 78 171 1.0 2.0 0.00 0.00 0.00 79 1015.0
20260904030924 78 173 1.0 2.0 0.00 0.00 0.00 78 1015.0
20260904030423 78 173 1.0 2.0 0.00 0.00 0.00 78 1015.2
20260904025923 78 190 0.0 2.0 0.00 0.00 0.00 78 1015.2
20260904025424 78 197 0.0 2.0 0.00 0.00 0.00 77 1015.3
20260904024925 78 198 0.0 2.0 0.00 0.00 0.00 77 1015.3
20260904024423 78 171 0.0 0.0 0.00 0.00 0.00 76 1015.3
20260904023944 78 171 0.0 3.0 0.00 0.00 0.00 76 1015.3
20260904023422 78 144 1.0 3.0 0.00 0.00 0.00 76 1015.3
20260904022921 78 128 0.0 2.0 0.00 0.00 0.00 75 1015.2
20260904022421 78 177 0.0 5.0 0.00 0.00 0.00 75 1015.2
20260904021920 78 185 0.0 5.0 0.00 0.00 0.00 75 1015.1
20260904021419 78 108 0.0 2.0 0.00 0.00 0.00 75 1015.1
20260904020918 78 121 0.0 0.0 0.00 0.00 0.00 75 1015.0
20260904020419 78 122 0.0 1.0 0.00 0.00 0.00 74 1015.1
20260904015919 78 188 0.0 4.0 0.00 0.00 0.00 74 1015.0
20260904015417 78 129 0.0 4.0 0.00 0.00 0.00 74 1014.9
20260904014916 78 184 1.0 4.0 0.00 0.00 0.00 74 1014.9
20260904014415 78 154 0.0 1.0 0.00 0.00 0.00 74 1014.9
20260904013916 79 211 0.0 2.0 0.00 0.00 0.00 74 1014.9
20260904013416 79 211 0.0 2.0 0.00 0.00 0.00 74 1015.0
20260904012914 79 167 0.0 1.0 0.00 0.00 0.00 74 1014.9
20260904012414 79 167 0.0 1.0 0.00 0.00 0.00 75 1014.8
20260904011932 79 84 0.0 0.0 0.00 0.00 0.00 75 1014.7
20260904011431 79 84 0.0 0.0 0.00 0.00 0.00 75 1014.7
20260904010911 79 84 0.0 1.0 0.00 0.00 0.00 75 1014.8
20260904010412 79 84 0.0 1.0 0.00 0.00 0.00 75 1014.8
20260904005911 79 84 0.0 1.0 0.00 0.00 0.00 75 1014.8
20260904005431 79 84 0.0 1.0 0.00 0.00 0.00 75 1014.8
20260904004928 79 84 0.0 1.0 0.00 0.00 0.00 75 1014.7
20260904004428 79 71 0.0 1.0 0.00 0.00 0.00 75 1014.7
20260904003927 80 71 0.0 2.0 0.00 0.00 0.00 74 1014.7
20260904003427 80 57 1.0 2.0 0.00 0.00 0.00 74 1014.8
20260904002947 80 54 0.0 0.0 0.00 0.00 0.00 73 1014.7
20260904002445 81 54 0.0 0.0 0.00 0.00 0.00 73 1014.7
20260904001922 81 54 0.0 3.0 0.00 0.00 0.00 73 1014.8
20260904001422 81 54 0.0 3.0 0.00 0.00 0.00 73 1014.7
20260904000922 82 76 2.0 3.0 0.00 0.00 0.00 73 1014.7
20260904000421 82 259 0.0 3.0 0.00 0.00 0.00 73 1014.6
20260903235920 82 42 1.0 4.0 0.00 0.00 0.00 72 1014.6
20260903235418 82 75 1.0 4.0 0.00 0.00 0.00 71 1014.5
20260903234919 82 101 0.0 2.0 0.00 0.00 0.00 71 1014.5
20260903234418 83 98 0.0 3.0 0.00 0.00 0.00 72 1014.2
20260903233917 83 177 0.0 3.0 0.00 0.00 0.00 71 1014.2
20260903233416 83 69 0.0 1.0 0.00 0.00 0.00 72 1014.2
20260903232916 83 69 0.0 2.0 0.00 0.00 0.00 72 1014.2
20260903232411 83 63 1.0 3.0 0.00 0.00 0.00 72 1014.2
20260903231931 83 63 0.0 3.0 0.00 0.00 0.00 72 1014.1
20260903231429 83 57 1.0 3.0 0.00 0.00 0.00 71 1014.1
20260903230947 83 42 0.0 3.0 0.00 0.00 0.00 71 1014.0
20260903230427 83 51 1.0 3.0 0.00 0.00 0.00 71 1014.1
20260903225946 83 24 1.0 2.0 0.00 0.00 0.00 70 1014.1
20260903225424 83 78 0.0 1.0 0.00 0.00 0.00 70 1014.0
20260903224943 83 78 0.0 2.0 0.00 0.00 0.00 69 1013.9
20260903224422 83 115 0.0 4.0 0.00 0.00 0.00 69 1013.9
20260903223922 83 53 1.0 4.0 0.00 0.00 0.00 69 1014.0
20260903223422 83 86 1.0 2.0 0.00 0.00 0.00 68 1014.0
20260903222922 83 102 0.0 3.0 0.00 0.00 0.00 69 1014.1
20260903222421 83 129 0.0 4.0 0.00 0.00 0.00 70 1014.2
20260903221921 83 17 2.0 5.0 0.00 0.00 0.00 69 1014.2
20260903221421 83 84 2.0 6.0 0.00 0.00 0.00 69 1014.1
20260903220918 83 89 2.0 6.0 0.00 0.00 0.00 69 1014.3
20260903220418 83 63 1.0 6.0 0.00 0.00 0.00 70 1014.2
20260903215917 83 59 2.0 7.0 0.00 0.00 0.00 69 1014.3
20260903215416 83 51 3.0 7.0 0.00 0.00 0.00 69 1014.4
20260903214916 83 58 2.0 6.0 0.00 0.00 0.00 69 1014.3
20260903214436 83 54 1.0 6.0 0.00 0.00 0.00 69 1014.4
20260903213916 83 51 2.0 6.0 0.00 0.00 0.00 69 1014.6
20260903213415 83 38 2.0 6.0 0.00 0.00 0.00 68 1014.6
20260903212912 83 42 3.0 8.0 0.00 0.00 0.00 67 1014.6
20260903212414 83 49 3.0 8.0 0.00 0.00 0.00 68 1014.7
20260903211912 83 57 2.0 4.0 0.00 0.00 0.00 69 1014.7
20260903211413 83 15 3.0 8.0 0.00 0.00 0.00 68 1014.8
20260903210913 83 67 3.0 8.0 0.00 0.00 0.00 69 1015.0
20260903210412 83 11 3.0 7.0 0.00 0.00 0.00 68 1014.9
20260903205912 83 38 1.0 6.0 0.00 0.00 0.00 68 1014.8
20260903205412 84 10 2.0 4.0 0.00 0.00 0.00 68 1014.8
20260903204912 83 29 2.0 6.0 0.00 0.00 0.00 67 1015.0
20260903204431 83 355 3.0 6.0 0.00 0.00 0.00 68 1015.1
20260903203931 83 355 2.0 4.0 0.00 0.00 0.00 67 1015.0
20260903203430 83 360 1.0 4.0 0.00 0.00 0.00 68 1015.1
20260903202927 83 9 2.0 4.0 0.00 0.00 0.00 67 1015.0
20260903202425 83 315 2.0 5.0 0.00 0.00 0.00 67 1014.9
20260903201925 83 78 3.0 5.0 0.00 0.00 0.00 67 1014.8
20260903201426 83 55 2.0 5.0 0.00 0.00 0.00 67 1014.8
20260903200926 83 34 2.0 5.0 0.00 0.00 0.00 66 1014.9
20260903200426 83 5 3.0 5.0 0.00 0.00 0.00 65 1014.9
20260903195925 83 304 1.0 5.0 0.00 0.00 0.00 66 1014.9
20260903195426 83 12 2.0 5.0 0.00 0.00 0.00 65 1014.7
20260903194925 83 73 0.0 4.0 0.00 0.00 0.00 66 1014.6
20260903194425 83 336 1.0 4.0 0.00 0.00 0.00 65 1014.5
20260903193945 83 350 2.0 5.0 0.00 0.00 0.00 64 1014.6
20260903193442 83 5 3.0 5.0 0.00 0.00 0.00 64 1014.7
20260903192921 83 15 3.0 6.0 0.00 0.00 0.00 64 1015.0
20260903192421 83 49 2.0 5.0 0.00 0.00 0.00 65 1015.1
20260903191921 83 42 2.0 5.0 0.00 0.00 0.00 65 1015.1
20260903191419 83 76 2.0 9.0 0.00 0.00 0.00 64 1015.1
20260903190918 83 343 2.0 9.0 0.00 0.00 0.00 63 1015.3
20260903190418 84 355 1.0 3.0 0.00 0.00 0.00 64 1015.5
20260903185937 84 38 2.0 5.0 0.00 0.00 0.00 63 1015.7
20260903185416 84 303 2.0 5.0 0.00 0.00 0.00 62 1015.6
20260903184933 84 320 2.0 5.0 0.00 0.00 0.00 62 1015.8
20260903184411 85 38 0.0 4.0 0.00 0.00 0.00 63 1015.8
20260903183912 85 18 1.0 4.0 0.00 0.00 0.00 62 1015.7
20260903183412 86 289 2.0 6.0 0.00 0.00 0.00 61 1015.8
20260903182927 86 355 1.0 6.0 0.00 0.00 0.00 61 1015.9
20260903182426 87 304 1.0 5.0 0.00 0.00 0.00 61 1015.8
20260903181926 88 11 0.0 6.0 0.00 0.00 0.00 59 1015.9
20260903181424 89 258 1.0 6.0 0.00 0.00 0.00 58 1015.8
20260903180923 89 297 1.0 6.0 0.00 0.00 0.00 59 1015.7
20260903180441 90 330 2.0 8.0 0.00 0.00 0.00 59 1015.6
20260903175920 91 270 3.0 8.0 0.00 0.00 0.00 59 1015.4
20260903175420 92 319 3.0 6.0 0.00 0.00 0.00 58 1015.4
20260903174938 93 285 2.0 5.0 0.00 0.00 0.00 61 1015.3
20260903174434 93 273 1.0 3.0 0.00 0.00 0.00 62 1015.1
20260903173923 93 273 1.0 5.0 0.00 0.00 0.00 61 1015.0
20260903173422 93 244 3.0 5.0 0.00 0.00 0.00 60 1015.1
20260903172920 94 228 3.0 5.0 0.00 0.00 0.00 61 1015.0
20260903172421 94 240 2.0 4.0 0.00 0.00 0.00 61 1014.9
20260903171939 93 248 3.0 6.0 0.00 0.00 0.00 61 1014.9
20260903171433 93 209 3.0 6.0 0.00 0.00 0.00 60 1014.9
20260903170911 93 246 2.0 3.0 0.00 0.00 0.00 62 1014.7
20260903170431 92 278 0.0 5.0 0.00 0.00 0.00 64 1014.6
20260903165952 92 282 2.0 5.0 0.00 0.00 0.00 62 1014.6
20260903165429 92 212 2.0 5.0 0.00 0.00 0.00 64 1014.4
20260903164927 91 239 2.0 5.0 0.00 0.00 0.00 65 1014.4
20260903164426 91 257 1.0 4.0 0.00 0.00 0.00 64 1014.5
20260903163924 90 232 2.0 3.0 0.00 0.00 0.00 65 1014.5
20260903163422 90 271 0.0 4.0 0.00 0.00 0.00 67 1014.5
20260903162922 90 257 2.0 3.0 0.00 0.00 0.00 68 1014.6
20260903162439 89 196 0.0 4.0 0.00 0.00 0.00 69 1014.7
20260903161919 89 211 2.0 5.0 0.00 0.00 0.00 69 1014.7
20260903161440 88 245 1.0 5.0 0.00 0.00 0.00 68 1014.7
20260903160939 88 261 1.0 4.0 0.00 0.00 0.00 70 1014.8
20260903160417 88 260 2.0 4.0 0.00 0.00 0.00 69 1014.8
20260903155916 87 203 2.0 3.0 0.00 0.00 0.00 70 1014.7
20260903155417 87 254 2.0 4.0 0.00 0.00 0.00 71 1014.8
20260903154931 87 207 3.0 4.0 0.00 0.00 0.00 71 1014.8
20260903154450 86 258 2.0 4.0 0.00 0.00 0.00 71 1014.8
20260903153947 86 194 1.0 5.0 0.00 0.00 0.00 73 1014.9
20260903153426 86 182 3.0 5.0 0.00 0.00 0.00 72 1015.0
20260903152925 85 267 1.0 4.0 0.00 0.00 0.00 74 1015.0
20260903152423 85 184 1.0 3.0 0.00 0.00 0.00 75 1015.0
20260903151922 85 265 1.0 3.0 0.00 0.00 0.00 75 1015.1
20260903151422 84 206 2.0 3.0 0.00 0.00 0.00 76 1015.1
20260903150919 84 219 0.0 3.0 0.00 0.00 0.00 75 1015.2
20260903150419 84 270 1.0 4.0 0.00 0.00 0.00 75 1015.3
20260903145916 83 217 2.0 4.0 0.00 0.00 0.00 75 1015.3
20260903145416 83 267 0.0 4.0 0.00 0.00 0.00 76 1015.3
20260903144914 83 235 1.0 4.0 0.00 0.00 0.00 76 1015.3
20260903144413 83 186 1.0 4.0 0.00 0.00 0.00 76 1015.1
20260903143913 82 234 2.0 3.0 0.00 0.00 0.00 77 1015.1
20260903143412 82 267 1.0 3.0 0.00 0.00 0.00 77 1015.1
20260903142932 82 257 2.0 3.0 0.00 0.00 0.00 77 1015.0
20260903142431 82 212 1.0 4.0 0.00 0.00 0.00 77 1015.0
20260903141931 82 244 2.0 4.0 0.00 0.00 0.00 77 1014.8
20260903141429 82 247 2.0 4.0 0.00 0.00 0.00 77 1014.8
20260903140928 81 193 2.0 3.0 0.00 0.00 0.00 77 1014.8
20260903140426 81 237 1.0 4.0 0.00 0.00 0.00 79 1014.9
20260903135927 81 198 1.0 4.0 0.00 0.00 0.00 79 1014.8
20260903135426 81 254 1.0 4.0 0.00 0.00 0.00 79 1014.7
20260903134926 81 190 2.0 5.0 0.00 0.00 0.00 79 1014.7
20260903134424 80 207 2.0 3.0 0.00 0.00 0.00 80 1014.6
20260903133924 80 219 1.0 3.0 0.00 0.00 0.00 81 1014.6
20260903133422 80 235 2.0 3.0 0.00 0.00 0.00 81 1014.7
20260903132923 80 214 0.0 3.0 0.00 0.00 0.00 81 1014.7
20260903132423 79 182 2.0 3.0 0.00 0.00 0.00 81 1014.7
20260903131922 79 244 1.0 3.0 0.00 0.00 0.00 81 1014.7
20260903131421 79 228 1.0 3.0 0.00 0.00 0.00 82 1014.7
20260903130919 78 219 2.0 3.0 0.00 0.00 0.00 82 1014.9
20260903130439 78 261 1.0 2.0 0.00 0.00 0.00 83 1014.9
20260903125918 78 240 0.0 2.0 0.00 0.00 0.00 84 1014.9
20260903125417 78 184 0.0 2.0 0.00 0.00 0.00 85 1015.0
20260903124916 77 184 0.0 2.0 0.00 0.00 0.00 85 1015.1
20260903124416 77 224 0.0 0.0 0.00 0.00 0.00 86 1015.2
20260903123935 77 224 0.0 1.0 0.00 0.00 0.00 86 1015.2
20260903123412 76 224 0.0 2.0 0.00 0.00 0.00 86 1015.1
20260903122912 76 224 0.0 2.0 0.00 0.00 0.00 86 1015.0
20260903122431 76 187 0.0 2.0 0.00 0.00 0.00 87 1015.1
20260903121929 76 187 0.0 2.0 0.00 0.00 0.00 87 1015.0
20260903121448 76 181 0.0 2.0 0.00 0.00 0.00 87 1015.0
20260903120928 76 181 0.0 2.0 0.00 0.00 0.00 87 1015.0
20260903120427 76 181 0.0 1.0 0.00 0.00 0.00 87 1015.1
20260903115927 76 181 0.0 2.0 0.00 0.00 0.00 87 1015.1
20260903115425 76 181 0.0 2.0 0.00 0.00 0.00 87 1015.0
20260903114924 76 173 0.0 0.0 0.00 0.00 0.00 87 1015.1
20260903114444 76 183 0.0 0.0 0.00 0.00 0.00 87 1015.0
20260903113924 76 185 0.0 0.0 0.00 0.00 0.00 87 1015.0
20260903113422 76 178 0.0 0.0 0.00 0.00 0.00 87 1015.0
20260903112921 76 178 0.0 0.0 0.00 0.00 0.00 87 1015.0
20260903112421 76 178 0.0 0.0 0.00 0.00 0.00 87 1014.9
20260903111941 76 178 0.0 0.0 0.00 0.00 0.00 87 1014.9
20260903111418 76 178 0.0 0.0 0.00 0.00 0.00 87 1014.9
20260903110917 76 178 0.0 0.0 0.00 0.00 0.00 87 1014.9
20260903110417 76 178 0.0 0.0 0.00 0.00 0.00 88 1014.9
20260903105916 76 178 0.0 0.0 0.00 0.00 0.00 88 1014.7
20260903105435 76 178 0.0 0.0 0.00 0.00 0.00 88 1014.7
20260903104915 76 178 0.0 0.0 0.00 0.00 0.00 88 1014.8
20260903104413 76 178 0.0 0.0 0.00 0.00 0.00 88 1014.7
20260903103913 76 178 0.0 0.0 0.00 0.00 0.00 88 1014.6
20260903103414 76 178 0.0 0.0 0.00 0.00 0.00 88 1014.7
20260903102914 76 178 0.0 0.0 0.00 0.00 0.00 88 1014.7
20260903102415 76 178 0.0 0.0 0.00 0.00 0.00 88 1014.7
20260903101934 76 178 0.0 1.0 0.00 0.00 0.00 89 1014.7
20260903101412 76 178 0.0 2.0 0.00 0.00 0.00 89 1014.7
20260903100931 76 184 0.0 0.0 0.00 0.00 0.00 89 1014.7
20260903100429 77 184 0.0 1.0 0.00 0.00 0.00 89 1014.7
20260903095928 77 184 0.0 1.0 0.00 0.00 0.00 89 1014.7
20260903095445 77 184 0.0 1.0 0.00 0.00 0.00 89 1014.7
20260903094922 77 184 0.0 0.0 0.00 0.00 0.00 89 1014.8
20260903094442 77 184 0.0 0.0 0.00 0.00 0.00 89 1014.8
20260903093920 77 184 0.0 2.0 0.00 0.00 0.00 89 1014.7
20260903093440 77 184 0.0 2.0 0.00 0.00 0.00 89 1014.7
20260903092919 77 213 0.0 1.0 0.00 0.00 0.00 89 1014.7
20260903092417 77 213 0.0 2.0 0.00 0.00 0.00 89 1014.7
20260903091917 77 213 1.0 2.0 0.00 0.00 0.00 89 1014.7
20260903091416 77 185 0.0 0.0 0.00 0.00 0.00 89 1014.7
20260903090917 77 197 0.0 0.0 0.00 0.00 0.00 88 1014.7
20260903090416 77 186 0.0 0.0 0.00 0.00 0.00 88 1014.6
20260903085935 77 186 0.0 0.0 0.00 0.00 0.00 88 1014.7
20260903085414 77 186 0.0 0.0 0.00 0.00 0.00 88 1014.6
20260903084913 77 186 0.0 0.0 0.00 0.00 0.00 88 1014.6
20260903084412 77 186 0.0 0.0 0.00 0.00 0.00 87 1014.6
20260903083931 77 186 0.0 0.0 0.00 0.00 0.00 87 1014.6
20260903083431 77 186 0.0 0.0 0.00 0.00 0.00 87 1014.6
20260903082929 77 186 0.0 0.0 0.00 0.00 0.00 87 1014.6
20260903082429 78 186 0.0 0.0 0.00 0.00 0.00 87 1014.7
20260903081929 78 186 0.0 0.0 0.00 0.00 0.00 87 1014.6
20260903081427 78 186 0.0 0.0 0.00 0.00 0.00 87 1014.7
20260903080926 78 186 0.0 0.0 0.00 0.00 0.00 86 1014.6
20260903080447 78 186 0.0 0.0 0.00 0.00 0.00 86 1014.5
20260903075925 78 186 0.0 0.0 0.00 0.00 0.00 86 1014.6